CZ-2C DEB, 40289

Orbit data source: Space-Track

CZ-2C DEB, 40289 is space debris in SSO originally from a launch on Mon, 27 Oct 2014 UTC launched from the Jiuquan Satellite Launch Center, China (JSC). Debris objects in space refer to the collection of defunct objects orbiting the Earth. Examples of debris include non-operational satellites, rocket bodies, and fragments generated from explosions, collisions, or faulty payload assembly.

Loading next visibility...
Identifier
40289, 2014-066D
Orbit
SSO
Country
Flag of CNCN / PRC
Related business
Manufacturer
CALT
Mission
Spacecraft
Bus & Motor
Unknown
Mass
1 kg wet, 1 kg dry
Launch date (UTC)
2014-10-27 (11 years ago)
Launch vehicle
Unknown
Launch site
Jiuquan Satellite Launch Center, China (JSC)
Object type
Payload
Rocket body
Debris
Shape & HBR
Cone, 0.1 m
Radar Cross Section
0.025 m², Small (<0.1 m²)

Expand to show TLE details & history
Last TLE update: 23 hours ago

TLE from 23 hours ago
0 CZ-2C DEB
1 40289U 14066D   25260.14199816  .00008388  00000-0  12352-2 0  9996
2 40289  98.4946 159.0018 0072768 298.0988  61.2876 14.73850622577965
Epoch: 2025-09-17T03:24Z
TLE epoch observation values (Epoch: 2025-09-17T03:24:28.641Z)
Latitude
-0.00001°
Longitude
111.56027°
Altitude
627.514 km
Speed
7.558 km/s
True Right ascension
10h 36m 00s
True Declination
0° 00' 00"
Sunlit
Object was in daylight at epoch
Visualization orbit readout
Latitude
Unknown
Longitude
Unknown
Altitude
Unknown
Speed
Unknown
Apparent Right ascension
Unknown
Apparent Declination
Unknown
Sunlit
N/A
Visualization observer readout
Local Sidereal Time
19:12:46
Azimuth
Unknown
Elevation
Unknown
Doppler factor
Unknown
Orbital elements
Apogee altitude
696.991 km
Perigee altitude
594.766 km
Semi-major axis
7,024.016 km
Eccentricity
0.00728
Inclination
98.4946°
RAAN
159.0018°
Arg. of periapsis
298.0988°
True anomaly
62.02212°
Mean anomaly
61.2876°
Eccentric anomaly
61.65454°
Mean motion
3.68693 °/min
Orbital period
97.64 mins
BSTAR
0.0012352
Loading maneuver chart data...
Computing Atmospheric mass density...
Loading historical data...
Loading historical data...
Loading historical data...
Loading historical data...
Loading historical data...
Loading historical data...
Loading historical data...
Other satellites on launch #66 in the year 2014 (2014-10-27 UTC)

Documentation

Showing up to 5 results
|